When you browse on this site, cookies collect data to enhance your experience and personalize the content and advertising you see.
Visit our Privacy Policy to learn more. By continuing to use the site, you agree to this use of cookies and data.
  • In Spain
  • List of Countries
  • For 7 days
  • Water Temperature
  • Satellite Maps
  • Weather Map
  • Weather Widgets
  • user-avatar
    Login

    Hourly Weather Bregenz

    Today, 17 February, Sunday

    Time Temperature Precipitation Wind Pressure Humidity
    00:00 -3°C° 0 mm 2 mps 651 mmHg 55%
    01:00 -3°C° 0 mm 2 mps 651 mmHg 54%
    02:00 -3°C° 0 mm 2 mps 651 mmHg 53%
    03:00 -3°C° 0 mm 2 mps 651 mmHg 53%
    04:00 -3°C° 0 mm 2 mps 650 mmHg 53%
    05:00 -3°C° 0 mm 2 mps 650 mmHg 53%
    06:00 -3°C° 0 mm 2 mps 650 mmHg 53%
    07:00 -3°C° 0 mm 2 mps 650 mmHg 53%
    08:00 -2°C° 0 mm 2 mps 651 mmHg 54%
    09:00 +1°C° 0 mm 2 mps 651 mmHg 55%
    10:00 +4°C° 0 mm 1 mps 651 mmHg 55%
    11:00 +6°C° 0 mm 1 mps 651 mmHg 56%
    12:00 +7°C° 0 mm 1 mps 651 mmHg 57%
    13:00 +8°C° 0 mm 0 mps 652 mmHg 58%
    14:00 +7°C° 0 mm 0 mps 651 mmHg 62%
    15:00 +7°C° 0 mm 0 mps 651 mmHg 66%
    16:00 +7°C° 0 mm 0 mps 650 mmHg 70%
    17:00 +6°C° 0 mm 1 mps 650 mmHg 70%
    18:00 +4°C° 0 mm 1 mps 650 mmHg 71%
    19:00 +1°C° 0 mm 2 mps 650 mmHg 72%
    20:00 -1°C° 0 mm 2 mps 649 mmHg 69%
    21:00 -1°C° 0 mm 2 mps 649 mmHg 66%
    22:00 -2°C° 0 mm 2 mps 649 mmHg 64%
    23:00 -2°C° 0 mm 2 mps 649 mmHg 62%

    Tomorrow, 18 February, Monday

    Time Temperature Precipitation Wind Pressure Humidity
    00:00 -3°C° 0 mm 2 mps 649 mmHg 60%
    01:00 -3°C° 0 mm 2 mps 649 mmHg 58%
    02:00 -3°C° 0 mm 2 mps 648 mmHg 58%
    03:00 -3°C° 0 mm 2 mps 648 mmHg 57%
    04:00 -3°C° 0 mm 2 mps 648 mmHg 57%
    05:00 -4°C° 0 mm 2 mps 648 mmHg 57%
    06:00 -4°C° 0 mm 2 mps 648 mmHg 57%
    07:00 -4°C° 0 mm 2 mps 648 mmHg 57%
    08:00 -2°C° 0 mm 2 mps 648 mmHg 57%
    09:00 +2°C° 0 mm 1 mps 648 mmHg 57%
    10:00 +3°C° 0 mm 1 mps 649 mmHg 57%
    11:00 +5°C° 0 mm 1 mps 649 mmHg 56%
    12:00 +6°C° 0 mm 1 mps 649 mmHg 56%
    13:00 +7°C° 0 mm 0 mps 649 mmHg 55%
    14:00 +7°C° 0 mm 0 mps 648 mmHg 59%
    15:00 +6°C° 0 mm 0 mps 648 mmHg 63%
    16:00 +6°C° 0 mm 0 mps 648 mmHg 66%
    17:00 +5°C° 0 mm 1 mps 648 mmHg 68%
    18:00 +3°C° 0 mm 1 mps 647 mmHg 70%
    19:00 +2°C° 0 mm 1 mps 647 mmHg 73%
    20:00 -1°C° 0 mm 2 mps 647 mmHg 71%
    21:00 -1°C° 0 mm 2 mps 647 mmHg 70%
    22:00 -2°C° 0 mm 2 mps 647 mmHg 69%
    23:00 -2°C° 0 mm 2 mps 647 mmHg 66%

    Day after tomorrow, 19 February, Tuesday

    Time Temperature Precipitation Wind Pressure Humidity
    00:00 -3°C° 0 mm 2 mps 647 mmHg 64%
    01:00 -3°C° 0 mm 2 mps 647 mmHg 62%
    02:00 -3°C° 0 mm 2 mps 647 mmHg 61%
    03:00 -3°C° 0 mm 2 mps 647 mmHg 60%
    04:00 -3°C° 0 mm 2 mps 647 mmHg 59%
    05:00 -4°C° 0 mm 2 mps 647 mmHg 59%
    06:00 -4°C° 0 mm 2 mps 647 mmHg 59%
    07:00 -4°C° 0 mm 2 mps 647 mmHg 58%
    08:00 -2°C° 0 mm 2 mps 647 mmHg 57%
    09:00 +2°C° 0 mm 1 mps 648 mmHg 57%
    10:00 +3°C° 0 mm 1 mps 649 mmHg 56%
    11:00 +4°C° 0 mm 1 mps 649 mmHg 54%
    12:00 +5°C° 0 mm 1 mps 649 mmHg 52%
    13:00 +6°C° 0 mm 1 mps 649 mmHg 51%
    14:00 +6°C° 0 mm 1 mps 649 mmHg 53%
    15:00 +6°C° 0 mm 1 mps 649 mmHg 56%
    16:00 +5°C° 0 mm 1 mps 648 mmHg 58%
    17:00 +4°C° 0 mm 1 mps 648 mmHg 63%
    18:00 +2°C° 0 mm 1 mps 648 mmHg 68%
    19:00 0°C° 0 mm 1 mps 648 mmHg 73%
    20:00 0°C° 0 mm 1 mps 648 mmHg 73%
    21:00 0°C° 0 mm 1 mps 649 mmHg 73%
    22:00 -3°C° 0 mm 2 mps 649 mmHg 73%
    23:00 -3°C° 0 mm 2 mps 649 mmHg 71%

    20 February, Wednesday

    Time Temperature Precipitation Wind Pressure Humidity
    00:00 -3°C° 0 mm 2 mps 649 mmHg 70%
    01:00 -3°C° 0 mm 2 mps 649 mmHg 68%
    02:00 -4°C° 0 mm 2 mps 649 mmHg 67%
    03:00 -4°C° 0 mm 2 mps 648 mmHg 66%
    04:00 -4°C° 0 mm 2 mps 648 mmHg 64%
    05:00 -4°C° 0 mm 2 mps 648 mmHg 63%
    06:00 -4°C° 0 mm 2 mps 648 mmHg 62%
    07:00 -4°C° 0 mm 2 mps 649 mmHg 61%
    08:00 0°C° 0 mm 1 mps 649 mmHg 59%
    09:00 +1°C° 0 mm 1 mps 650 mmHg 57%
    10:00 +3°C° 0 mm 1 mps 650 mmHg 54%
    11:00 +4°C° 0 mm 1 mps 651 mmHg 53%
    12:00 +5°C° 0 mm 0 mps 651 mmHg 52%
    13:00 +6°C° 0 mm 0 mps 651 mmHg 51%
    14:00 +5°C° 0 mm 0 mps 651 mmHg 54%
    15:00 +5°C° 0 mm 0 mps 651 mmHg 57%
    16:00 +6°C° 0 mm 1 mps 651 mmHg 60%
    17:00 +4°C° 0 mm 1 mps 650 mmHg 65%
    18:00 +2°C° 0 mm 1 mps 650 mmHg 70%
    19:00 +1°C° 0 mm 1 mps 650 mmHg 75%
    20:00 +1°C° 0 mm 1 mps 650 mmHg 75%
    21:00 0°C° 0 mm 1 mps 651 mmHg 76%
    22:00 -2°C° 0 mm 2 mps 651 mmHg 76%
    23:00 -2°C° 0 mm 2 mps 651 mmHg 75%

    21 February, Thursday

    Time Temperature Precipitation Wind Pressure Humidity
    00:00 -2°C° 0 mm 2 mps 651 mmHg 74%
    01:00 -2°C° 0 mm 2 mps 651 mmHg 73%
    02:00 -3°C° 0 mm 2 mps 651 mmHg 72%
    03:00 -3°C° 0 mm 2 mps 651 mmHg 71%
    04:00 -3°C° 0 mm 2 mps 650 mmHg 70%
    05:00 -3°C° 0 mm 2 mps 651 mmHg 70%
    06:00 -3°C° 0 mm 2 mps 651 mmHg 69%
    07:00 -3°C° 0 mm 2 mps 651 mmHg 69%
    08:00 +1°C° 0 mm 1 mps 651 mmHg 66%
    09:00 +3°C° 0 mm 1 mps 652 mmHg 63%
    10:00 +3°C° 0 mm 0 mps 653 mmHg 60%
    11:00 +4°C° 0 mm 0 mps 653 mmHg 59%
    12:00 +5°C° 0 mm 0 mps 653 mmHg 58%
    13:00 +6°C° 0 mm 0 mps 653 mmHg 57%
    14:00 +6°C° 0 mm 0 mps 653 mmHg 58%
    15:00 +6°C° 0 mm 0 mps 652 mmHg 60%
    16:00 +6°C° 0 mm 0 mps 652 mmHg 62%
    17:00 +5°C° 0 mm 1 mps 652 mmHg 67%
    18:00 +4°C° 0 mm 1 mps 652 mmHg 72%
    19:00 +2°C° 0 mm 1 mps 652 mmHg 77%
    20:00 +2°C° 0 mm 1 mps 652 mmHg 78%
    21:00 +1°C° 0 mm 1 mps 652 mmHg 78%
    22:00 +1°C° 0 mm 1 mps 653 mmHg 79%
    23:00 0°C° 0 mm 1 mps 652 mmHg 78%

    22 February, Friday

    Time Temperature Precipitation Wind Pressure Humidity
    00:00 0°C° 0 mm 1 mps 652 mmHg 78%
    01:00 -2°C° 0 mm 2 mps 652 mmHg 78%
    02:00 -2°C° 0 mm 2 mps 652 mmHg 78%
    03:00 0°C° 0 mm 1 mps 652 mmHg 77%
    04:00 -1°C° 0 mm 1 mps 652 mmHg 77%
    05:00 -1°C° 0 mm 1 mps 652 mmHg 76%
    06:00 -1°C° 0 mm 1 mps 652 mmHg 76%
    07:00 -1°C° 0 mm 1 mps 652 mmHg 75%
    08:00 +1°C° 0 mm 1 mps 652 mmHg 71%
    09:00 +2°C° 0 mm 0 mps 653 mmHg 67%
    10:00 +3°C° 0 mm 0 mps 653 mmHg 64%
    11:00 +4°C° 0 mm 0 mps 653 mmHg 64%
    12:00 +6°C° 0 mm 1 mps 653 mmHg 64%
    13:00 +6°C° 0 mm 1 mps 653 mmHg 64%
    14:00 +6°C° 0 mm 1 mps 653 mmHg 67%
    15:00 +5°C° 0 mm 2 mps 653 mmHg 71%
    16:00 +4°C° 0 mm 2 mps 653 mmHg 74%
    17:00 +3°C° 0 mm 2 mps 653 mmHg 80%
    18:00 +3°C° 0 mm 1 mps 653 mmHg 87%
    19:00 +2°C° 0 mm 1 mps 653 mmHg 93%
    20:00 +1°C° 0 mm 1 mps 653 mmHg 94%
    21:00 +1°C° 0 mm 1 mps 653 mmHg 94%
    22:00 0°C° 0 mm 1 mps 653 mmHg 95%
    23:00 0°C° 0 mm 1 mps 653 mmHg 94%
    Show more